Location: Unspecified
(35.6961°N, 0.0000°E)
Time: 04:55:35
(UTC+00:00)

PicSat - Visible Passes

Search period start: 20 June 2019 00:00
Search period end: 30 June 2019 00:00
Orbit: 488 x 499 km, 97.5° (Epoch: 18 June)

Date Brightness Start Highest point End Pass type
(mag) Time Alt. Az. Time Alt. Az. Time Alt. Az.
20 Jun ? 22:00:03 48° WNW 22:00:03 48° WNW 22:03:18 10° NNW visible
21 Jun ? 21:38:11 75° NE 21:38:11 75° NE 21:41:44 10° N visible
22 Jun ? 21:16:18 36° E 21:16:29 37° ENE 21:19:53 10° N visible
22 Jun ? 22:50:50 11° W 22:50:50 11° W 22:51:12 10° WNW visible
23 Jun ? 20:54:25 19° E 20:54:57 20° ENE 20:57:40 10° NNE visible
23 Jun ? 22:28:57 20° W 22:28:57 20° W 22:31:15 10° NW visible
24 Jun ? 20:32:37 10° E 20:33:30 11° ENE 20:34:24 10° NE visible
24 Jun ? 22:07:05 39° W 22:07:05 39° W 22:10:10 10° NNW visible
25 Jun ? 21:45:12 79° NW 21:45:12 79° NW 21:48:42 10° NNW visible
26 Jun ? 21:23:19 45° E 21:23:24 46° ENE 21:26:56 10° N visible
27 Jun ? 21:01:26 23° E 21:01:51 24° ENE 21:04:50 10° NNE visible
27 Jun ? 22:35:58 17° W 22:35:58 17° W 22:37:52 10° NW visible
28 Jun ? 20:39:33 12° E 20:40:22 13° ENE 20:42:06 10° NE visible
28 Jun ? 22:14:06 31° W 22:14:06 31° W 22:16:58 10° NNW visible
29 Jun ? 21:52:13 64° WNW 21:52:13 64° WNW 21:55:36 10° NNW visible
